EW1527 Weather Reports


time (UTC)temp
C
wind
direction
speed
KPH
gust
KPH
rain 1hr
cm
rain 24hr
cm
rain mn
cm
humidity
%
barometer
mb
20260505170016 25 166 3.2 27.4 0.00 0.00 0.00 42 1011.3
20260505164517 25 191 3.2 20.9 0.00 0.00 0.00 42 1011.5
20260505163014 25 191 6.4 11.3 0.00 0.00 0.00 42 1011.5
20260505161512 24 193 6.4 17.7 0.00 0.00 0.00 45 1011.7
20260505153030 23 191 3.2 17.7 0.00 0.00 0.00 45 1012.1
20260505151512 23 149 3.2 14.5 0.00 0.00 0.00 45 1012.1
20260505124512 18 1 14.5 24.1 0.00 0.00 0.00 57 1012.6
20260505123011 17 1 4.8 17.7 0.00 0.00 0.00 60 1012.5
20260505121512 17 1 4.8 17.7 0.00 0.00 0.00 61 1012.4
20260505120014 17 1 4.8 12.9 0.00 0.00 0.00 62 1012.6
20260505114511 16 1 6.4 24.1 0.00 0.00 0.00 65 1012.5
20260505113013 16 1 4.8 20.9 0.00 0.00 0.00 67 1012.4
20260505111514 15 1 6.4 19.3 0.00 0.00 0.00 68 1012.1
20260505101511 15 1 4.8 16.1 0.00 0.00 0.00 68 1011.9
20260505100014 15 1 6.4 12.9 0.00 0.00 0.00 67 1011.8
20260505094511 15 1 6.4 12.9 0.00 0.00 0.00 68 1011.5
20260505093012 15 1 3.2 14.5 0.00 0.00 0.00 68 1011.5
20260505091512 15 1 6.4 17.7 0.00 0.00 0.00 70 1011.5
20260505090014 15 1 4.8 11.3 0.00 0.00 0.00 70 1011.4
20260505084604 15 1 1.6 6.4 0.00 0.00 0.00 69 1011.6
20260505083110 15 1 1.6 8.0 0.00 0.00 0.00 68 1011.6
20260505081600 15 1 3.2 8.0 0.00 0.00 0.00 68 1011.5
20260505080105 15 1 3.2 11.3 0.00 0.00 0.00 68 1011.5
20260505074557 15 1 4.8 11.3 0.00 0.00 0.00 67 1011.7
20260505073106 15 1 3.2 11.3 0.00 0.00 0.00 67 1011.7
20260505071557 15 1 4.8 12.9 0.00 0.00 0.00 66 1011.5
20260505070106 15 1 8.0 19.3 0.00 0.00 0.00 65 1011.5
20260505064644 15 1 4.8 22.5 0.00 0.00 0.00 65 1011.4
20260505063101 15 1 6.4 12.9 0.00 0.00 0.00 65 1011.4
20260505061600 15 1 8.0 17.7 0.00 0.00 0.00 64 1011.6
20260505061501 15 1 6.4 17.7 0.00 0.00 0.00 64 1011.6
20260505060057 16 1 1.6 12.9 0.00 0.00 0.00 63 1011.4
20260505054601 16 1 3.2 14.5 0.00 0.00 0.00 62 1011.5
20260505053058 16 1 3.2 11.3 0.00 0.00 0.00 61 1011.5
20260505051557 16 1 1.6 8.0 0.00 0.00 0.00 61 1011.6
20260505041501 16 1 1.6 8.0 0.00 0.00 0.00 60 1011.6
20260505040006 16 1 1.6 6.4 0.00 0.00 0.00 58 1011.6
20260505034501 16 1 1.6 6.4 0.00 0.00 0.00 55 1011.6
20260505033009 16 1 3.2 6.4 0.00 0.00 0.00 52 1011.6
20260505031501 17 1 3.2 9.7 0.00 0.00 0.00 50 1011.7
20260505030008 17 1 1.6 4.8 0.00 0.00 0.00 47 1011.7
20260505024612 17 1 1.6 8.0 0.00 0.00 0.00 47 1011.9
20260505023100 17 1 3.2 8.0 0.00 0.00 0.00 46 1012.1
20260505021600 17 1 1.6 6.4 0.00 0.00 0.00 45 1012.0
20260505020109 18 1 1.6 4.8 0.00 0.00 0.00 45 1012.0
20260505020002 18 1 0.0 4.8 0.00 0.00 0.00 45 1011.9
20260505014603 18 1 1.6 6.4 0.00 0.00 0.00 44 1011.9
20260505014501 18 1 0.0 6.4 0.00 0.00 0.00 45 1011.9
20260505013100 18 1 1.6 4.8 0.00 0.00 0.00 44 1011.9
20260505011603 18 1 1.6 4.8 0.00 0.00 0.00 43 1011.7
20260505010113 18 1 0.0 3.2 0.00 0.00 0.00 42 1011.6
20260505010002 18 1 0.0 3.2 0.00 0.00 0.00 42 1011.7
20260505004631 19 1 1.6 6.4 0.00 0.00 0.00 41 1011.3
20260505003102 19 1 1.6 4.8 0.00 0.00 0.00 39 1011.3
20260505001605 20 1 1.6 14.5 0.00 0.00 0.00 39 1011.1
20260505000113 20 1 3.2 17.7 0.00 0.00 0.00 38 1011.1
20260505000003 20 1 3.2 17.7 0.00 0.00 0.00 38 1011.2
20260504234600 20 1 1.6 12.9 0.00 0.00 0.00 37 1011.0
20260504233109 20 1 4.8 14.5 0.00 0.00 0.00 36 1010.9
20260504231625 21 1 8.0 29.0 0.00 0.00 0.00 35 1010.8
20260504230100 21 1 4.8 20.9 0.00 0.00 0.00 35 1010.8
20260504230004 21 1 6.4 20.9 0.00 0.00 0.00 35 1010.8
20260504224615 21 1 3.2 19.3 0.00 0.00 0.00 34 1010.8
20260504223101 21 1 6.4 19.3 0.00 0.00 0.00 34 1010.9
20260504221646 21 141 4.8 22.5 0.00 0.00 0.00 34 1010.9
20260504220100 21 182 3.2 20.9 0.00 0.00 0.00 34 1011.0
20260504220002 21 1 6.4 20.9 0.00 0.00 0.00 34 1011.0
20260504214603 21 145 8.0 20.9 0.00 0.00 0.00 34 1011.1
20260504213103 21 241 8.0 19.3 0.00 0.00 0.00 34 1011.1
20260504211600 21 1 8.0 19.3 0.00 0.00 0.00 31 1011.2
20260504210100 22 1 6.4 22.5 0.00 0.00 0.00 32 1011.1
20260504210002 22 1 4.8 19.3 0.00 0.00 0.00 33 1011.2
20260504204559 22 1 11.3 30.6 0.00 0.00 0.00 31 1011.2
20260504203108 22 183 6.4 20.9 0.00 0.00 0.00 32 1011.2
20260504201607 22 1 14.5 27.4 0.00 0.00 0.00 31 1011.3
20260504200006 22 1 6.4 24.1 0.00 0.00 0.00 31 1011.3
20260504194605 22 1 9.7 20.9 0.00 0.00 0.00 31 1011.4
20260504193100 21 1 8.0 27.4 0.00 0.00 0.00 32 1011.5
20260504191623 21 1 6.4 24.1 0.00 0.00 0.00 32 1011.8
20260504191502 21 1 9.7 24.1 0.00 0.00 0.00 32 1011.8
20260504190110 21 1 9.7 29.0 0.00 0.00 0.00 31 1012.0
20260504190002 21 1 11.3 29.0 0.00 0.00 0.00 32 1012.0
20260504184609 21 1 8.0 30.6 0.00 0.00 0.00 32 1012.1
20260504183100 21 1 16.1 35.4 0.00 0.00 0.00 32 1012.5
20260504181606 21 1 9.7 19.3 0.00 0.00 0.00 32 1012.7
20260504181504 21 1 9.7 19.3 0.00 0.00 0.00 32 1012.7
20260504180100 21 1 11.3 24.1 0.00 0.00 0.00 34 1012.8
20260504180003 21 1 9.7 24.1 0.00 0.00 0.00 33 1012.8
20260504174600 20 1 8.0 24.1 0.00 0.00 0.00 33 1013.1
20260504173105 20 1 9.7 24.1 0.00 0.00 0.00 34 1013.1
20260504171604 20 1 9.7 32.2 0.00 0.00 0.00 35 1013.5